• In Hungary
  • List of Countries
  • For 7 days
  • Water Temperature
  • Satellite Maps
  • Weather Map
  • News
  • Weather Widgets
  • user-avatar
    Login

    Hourly Weather Klimovka

    Today, 22 July, Sunday

    Time Temperature Precipitation Wind Pressure Humidity
    00:00 +17°C° 0 mm 4 mps 744 mmHg 77%
    01:00 +17°C° 0 mm 4 mps 744 mmHg 77%
    02:00 +15°C° 0 mm 4 mps 744 mmHg 77%
    03:00 +15°C° 0 mm 4 mps 744 mmHg 77%
    04:00 +16°C° 0 mm 3 mps 745 mmHg 79%
    05:00 +15°C° 0 mm 4 mps 745 mmHg 77%
    06:00 +15°C° 0 mm 5 mps 745 mmHg 75%
    07:00 +16°C° 0 mm 6 mps 746 mmHg 73%
    08:00 +17°C° 0 mm 6 mps 746 mmHg 68%
    09:00 +19°C° 0 mm 6 mps 746 mmHg 62%
    10:00 +20°C° 0 mm 6 mps 746 mmHg 57%
    11:00 +20°C° 0 mm 6 mps 746 mmHg 54%
    12:00 +21°C° 0 mm 6 mps 747 mmHg 52%
    13:00 +22°C° 0 mm 6 mps 747 mmHg 49%
    14:00 +22°C° 0 mm 5 mps 747 mmHg 50%
    15:00 +22°C° 0 mm 5 mps 747 mmHg 52%
    16:00 +22°C° 0 mm 5 mps 747 mmHg 53%
    17:00 +21°C° 0 mm 4 mps 747 mmHg 58%
    18:00 +20°C° 0 mm 4 mps 747 mmHg 62%
    19:00 +18°C° 0 mm 3 mps 747 mmHg 67%
    20:00 +17°C° 0 mm 3 mps 747 mmHg 67%
    21:00 +16°C° 0 mm 3 mps 748 mmHg 67%
    22:00 +14°C° 0 mm 3 mps 748 mmHg 68%
    23:00 +14°C° 0 mm 3 mps 748 mmHg 69%

    Tomorrow, 23 July, Monday

    Time Temperature Precipitation Wind Pressure Humidity
    00:00 +13°C° 0 mm 3 mps 749 mmHg 71%
    01:00 +12°C° 0 mm 3 mps 749 mmHg 72%
    02:00 +12°C° 0 mm 3 mps 749 mmHg 74%
    03:00 +11°C° 0 mm 3 mps 749 mmHg 77%
    04:00 +11°C° 0 mm 3 mps 750 mmHg 79%
    05:00 +12°C° 0 mm 3 mps 750 mmHg 77%
    06:00 +13°C° 0 mm 3 mps 750 mmHg 76%
    07:00 +13°C° 0 mm 3 mps 750 mmHg 74%
    08:00 +16°C° 0 mm 3 mps 750 mmHg 68%
    09:00 +18°C° 0 mm 3 mps 750 mmHg 63%
    10:00 +19°C° 0 mm 3 mps 750 mmHg 57%
    11:00 +21°C° 0 mm 3 mps 750 mmHg 53%
    12:00 +22°C° 0 mm 3 mps 750 mmHg 50%
    13:00 +24°C° 0 mm 3 mps 750 mmHg 46%
    14:00 +24°C° 0 mm 3 mps 750 mmHg 46%
    15:00 +25°C° 0 mm 3 mps 750 mmHg 46%
    16:00 +25°C° 0 mm 2 mps 750 mmHg 46%
    17:00 +24°C° 0 mm 2 mps 750 mmHg 53%
    18:00 +24°C° 0 mm 2 mps 750 mmHg 61%
    19:00 +23°C° 0 mm 2 mps 750 mmHg 68%
    20:00 +20°C° 0 mm 2 mps 750 mmHg 73%
    21:00 +18°C° 0 mm 2 mps 750 mmHg 77%
    22:00 +16°C° 0 mm 2 mps 750 mmHg 82%
    23:00 +16°C° 0 mm 1 mps 750 mmHg 82%

    Day after tomorrow, 24 July, Tuesday

    Time Temperature Precipitation Wind Pressure Humidity
    00:00 +15°C° 0 mm 1 mps 751 mmHg 82%
    01:00 +15°C° 0 mm 1 mps 751 mmHg 82%
    02:00 +14°C° 0 mm 1 mps 751 mmHg 83%
    03:00 +14°C° 0 mm 1 mps 751 mmHg 84%
    04:00 +14°C° 0 mm 1 mps 751 mmHg 85%
    05:00 +15°C° 0 mm 1 mps 751 mmHg 82%
    06:00 +18°C° 0 mm 1 mps 751 mmHg 78%
    07:00 +19°C° 0 mm 1 mps 752 mmHg 75%
    08:00 +20°C° 0 mm 2 mps 752 mmHg 70%
    09:00 +23°C° 0 mm 2 mps 752 mmHg 66%
    10:00 +25°C° 0 mm 2 mps 752 mmHg 61%
    11:00 +26°C° 0 mm 3 mps 751 mmHg 59%
    12:00 +27°C° 0 mm 3 mps 751 mmHg 57%
    13:00 +28°C° 0 mm 3 mps 751 mmHg 54%
    14:00 +28°C° 0 mm 3 mps 751 mmHg 55%
    15:00 +28°C° 0 mm 3 mps 751 mmHg 56%
    16:00 +28°C° 0 mm 3 mps 751 mmHg 57%
    17:00 +27°C° 0.1 mm 3 mps 751 mmHg 64%
    18:00 +26°C° 0.1 mm 3 mps 751 mmHg 70%
    19:00 +25°C° 0.1 mm 3 mps 751 mmHg 76%
    20:00 +23°C° 0 mm 2 mps 751 mmHg 80%
    21:00 +21°C° 0 mm 2 mps 751 mmHg 83%
    22:00 +20°C° 0 mm 2 mps 752 mmHg 87%
    23:00 +19°C° 0 mm 2 mps 752 mmHg 88%

    25 July, Wednesday

    Time Temperature Precipitation Wind Pressure Humidity
    00:00 +19°C° 0 mm 2 mps 752 mmHg 90%
    01:00 +18°C° 0 mm 2 mps 752 mmHg 91%
    02:00 +18°C° 0 mm 2 mps 752 mmHg 91%
    03:00 +18°C° 0 mm 1 mps 752 mmHg 91%
    04:00 +18°C° 0 mm 1 mps 752 mmHg 91%
    05:00 +19°C° 0 mm 1 mps 752 mmHg 87%
    06:00 +20°C° 0 mm 1 mps 752 mmHg 83%
    07:00 +22°C° 0 mm 1 mps 752 mmHg 80%
    08:00 +24°C° 0 mm 2 mps 752 mmHg 73%
    09:00 +25°C° 0 mm 2 mps 752 mmHg 67%
    10:00 +27°C° 0 mm 2 mps 752 mmHg 61%
    11:00 +28°C° 0 mm 2 mps 752 mmHg 57%
    12:00 +29°C° 0 mm 3 mps 752 mmHg 54%
    13:00 +30°C° 0 mm 3 mps 752 mmHg 50%
    14:00 +29°C° 0 mm 3 mps 752 mmHg 51%
    15:00 +29°C° 0 mm 3 mps 752 mmHg 52%
    16:00 +29°C° 0 mm 3 mps 752 mmHg 54%
    17:00 +28°C° 0 mm 2 mps 752 mmHg 59%
    18:00 +27°C° 0 mm 2 mps 752 mmHg 64%
    19:00 +26°C° 0 mm 2 mps 752 mmHg 69%
    20:00 +25°C° 0 mm 2 mps 752 mmHg 72%
    21:00 +23°C° 0 mm 2 mps 753 mmHg 75%
    22:00 +20°C° 0 mm 2 mps 753 mmHg 78%
    23:00 +20°C° 0 mm 2 mps 753 mmHg 79%

    26 July, Thursday

    Time Temperature Precipitation Wind Pressure Humidity
    00:00 +19°C° 0 mm 2 mps 753 mmHg 81%
    01:00 +18°C° 0 mm 2 mps 753 mmHg 82%
    02:00 +18°C° 0 mm 2 mps 753 mmHg 83%
    03:00 +18°C° 0 mm 2 mps 753 mmHg 85%
    04:00 +17°C° 0 mm 2 mps 753 mmHg 86%
    05:00 +18°C° 0 mm 2 mps 754 mmHg 83%
    06:00 +20°C° 0 mm 2 mps 754 mmHg 80%
    07:00 +21°C° 0 mm 2 mps 754 mmHg 77%
    08:00 +23°C° 0 mm 2 mps 754 mmHg 71%
    09:00 +25°C° 0 mm 3 mps 754 mmHg 65%
    10:00 +27°C° 0 mm 3 mps 754 mmHg 59%
    11:00 +28°C° 0 mm 3 mps 754 mmHg 55%
    12:00 +29°C° 0 mm 3 mps 754 mmHg 51%
    13:00 +30°C° 0 mm 3 mps 754 mmHg 47%
    14:00 +29°C° 0 mm 3 mps 753 mmHg 49%
    15:00 +29°C° 0 mm 3 mps 753 mmHg 50%
    16:00 +29°C° 0 mm 2 mps 753 mmHg 52%
    17:00 +28°C° 0 mm 2 mps 753 mmHg 58%
    18:00 +27°C° 0 mm 2 mps 753 mmHg 64%
    19:00 +26°C° 0 mm 2 mps 753 mmHg 70%
    20:00 +25°C° 0 mm 2 mps 753 mmHg 72%
    21:00 +23°C° 0 mm 2 mps 753 mmHg 74%
    22:00 +21°C° 0 mm 2 mps 753 mmHg 77%
    23:00 +21°C° 0 mm 2 mps 753 mmHg 77%

    27 July, Friday

    Time Temperature Precipitation Wind Pressure Humidity
    00:00 +20°C° 0 mm 2 mps 753 mmHg 77%
    01:00 +21°C° 0 mm 1 mps 753 mmHg 78%
    02:00 +20°C° 0 mm 1 mps 753 mmHg 78%
    03:00 +19°C° 0 mm 2 mps 754 mmHg 79%
    04:00 +19°C° 0 mm 2 mps 754 mmHg 79%
    05:00 +20°C° 0 mm 2 mps 754 mmHg 77%
    06:00 +21°C° 0 mm 2 mps 754 mmHg 75%
    07:00 +23°C° 0 mm 2 mps 754 mmHg 73%
    08:00 +25°C° 0 mm 2 mps 754 mmHg 67%
    09:00 +27°C° 0 mm 2 mps 754 mmHg 62%
    10:00 +29°C° 0 mm 3 mps 754 mmHg 56%
    11:00 +29°C° 0 mm 3 mps 754 mmHg 53%
    12:00 +30°C° 0 mm 3 mps 754 mmHg 50%
    13:00 +31°C° 0 mm 3 mps 753 mmHg 47%
    14:00 +31°C° 0 mm 3 mps 753 mmHg 48%
    15:00 +31°C° 0 mm 3 mps 753 mmHg 49%
    16:00 +31°C° 0 mm 3 mps 753 mmHg 51%
    17:00 +29°C° 0 mm 3 mps 753 mmHg 56%
    18:00 +28°C° 0 mm 2 mps 753 mmHg 62%
    19:00 +27°C° 0 mm 2 mps 753 mmHg 68%
    20:00 +26°C° 0 mm 2 mps 753 mmHg 70%
    21:00 +24°C° 0 mm 2 mps 753 mmHg 72%
    22:00 +23°C° 0 mm 2 mps 753 mmHg 74%
    23:00 +21°C° 0 mm 2 mps 753 mmHg 75%
    Show more